Tracking 28790 objects as of 19-Apr-2024
HD Live streaming from Space Station
objects crossing your sky now

THOR ABLESTAR DEB

Track THOR ABLESTAR DEB now!
10-day predictions


NORAD ID: 13513
Int'l Code: 1961-015KW
Perigee: 870.8 km
Apogee: 1,022.4 km
Inclination: 65.7 °
Period: 103.8 minutes
Semi major axis: 7317 km
RCS: 0.0483 m2 (small)
Launch date: June 29, 1961
Source: United States (US)
Launch site: AIR FORCE EASTERN TEST RANGE (AFETR)

Note: This is SATELLITE DEBRIS
Your satellite tracking list
Your tracking list is empty




NASA's NSSDC Master Catalog

Two Line Element Set (TLE):
1 13513U 61015KW  24109.01734994  .00002032  00000-0  17331-2 0  9993
2 13513  65.6809  42.4921 0103631 231.1264 217.0079 13.86912972209458
Source of the keplerian elements: AFSPC